Content
SEND FEEDBACK

Daily
Averages
Monthly
Summary
United States of America

TURNERS FALLS, MASSACHUSETTS


Home > North America > United States > Massachusetts
Elevation: 357 feet     Latitude: 42 35N     Longitude: 072 31W

WEATHER
 
SELECT A DAY
Number of Records: 214,952;   Date Range: 7/1/96 - 9/30/14
 
SHARE

PRINT THIS DATA

[ ← Previous Day ]
WEATHER ALMANAC - MARCH 29, 2014
[ Next Day → ]
[ °C ]   °F
Weather ElementAverageHighLow
Temperature42 °F52 °F (12:52 pm)32 °F (6:43 am)
Dewpoint36.9 °F44.6 °F (12:50 am)30 °F (6:52 am)
Humidity83.3 %100 % (12:50 am)54 % (12:52 pm)
Barometer30.14 in30.25 in (9:52 am)29.96 in (11:52 pm)
Wind Speed5.8 mph12.7 mph (2:52 pm)
Weather ElementAverage
Visibility7.4 mi
Wind DirectionESE (112.1 °)

Weather ElementTotal
Precipitation0.75 in
Heating Degree Days23 (Base 65)
Averaged from 38 records on March 29, 2014
WEATHER CONDITIONS BREAKOUT
WIND DIRECTION BREAKOUT
WEATHER BY HOUR - MARCH 29, 2014
[ °C ]   °F
Local TimeTemperatureDewpointHumidityBarometerVisibilityWind DirectionWind SpeedGust SpeedPrecipitationEventsConditions
12:34 AM44.1 °F42.1 °F93 %30.06 in1.5 miWNW (300°)6.9 mph0.01 inRainLight Rain
12:36 AM44.1 °F43.0 °F96 %30.06 in3.0 miWNW (290°)10.4 mph0.01 inRainLight Rain
12:50 AM44.6 °F44.6 °F100 %30.07 in10.0 miWNW (300°)8.1 mph0.01 inOvercast
12:52 AM45.0 °F43.0 °F93 %30.09 in10.0 miWNW (290°)8.1 mph0.01 inOvercast
1:52 AM44.1 °F39.9 °F85 %30.12 in10.0 miVariable3.5 mphClear
2:52 AM42.1 °F37.9 °F85 %30.14 in10.0 miWNW (300°)5.8 mphClear
3:52 AM42.1 °F37.0 °F82 %30.14 in10.0 miWNW (300°)3.5 mphClear
4:52 AM39.0 °F36.0 °F89 %30.13 in10.0 miNNE (20°)4.6 mphClear
5:52 AM37.0 °F35.1 °F93 %30.17 in10.0 miCalmClear
6:40 AM33.1 °F30.9 °F92 %30.17 in1.8 miCalmClear
6:43 AM32.0 °F30.9 °F96 %30.16 in1.0 miNorth (360°)3.5 mphClear
6:52 AM32.0 °F30.0 °F92 %30.17 in1.0 miNorth (360°)6.9 mphClear
6:59 AM32.0 °F30.0 °F92 %30.15 in1.5 miNNE (20°)8.1 mphClear
7:04 AM34.0 °F33.1 °F96 %30.14 in3.0 miNorth (360°)9.2 mphClear
7:52 AM35.1 °F34.0 °F96 %30.20 in6.0 miCalmClear
8:52 AM42.1 °F37.9 °F85 %30.23 in10.0 miCalmPartly Cloudy
9:34 AM45.0 °F39.0 °F80 %30.23 in10.0 miCalmMostly Cloudy
9:43 AM45.0 °F39.0 °F80 %30.24 in10.0 miSSE (150°)3.5 mphScattered Clouds
9:50 AM44.6 °F39.2 °F81 %30.24 in10.0 miSSE (160°)3.5 mphMostly Cloudy
9:52 AM45.0 °F39.0 °F80 %30.25 in10.0 miCalmMostly Cloudy
10:52 AM48.0 °F37.0 °F66 %30.24 in10.0 miVariable5.8 mphMostly Cloudy
11:47 AM51.8 °F37.4 °F58 %30.21 in10.0 miENE (60°)6.9 mphMostly Cloudy
11:52 AM50.0 °F37.0 °F61 %30.22 in10.0 miNE (50°)8.1 mphMostly Cloudy
12:52 PM52.0 °F36.0 °F54 %30.19 in10.0 miEast (80°)11.5 mphMostly Cloudy
1:52 PM51.1 °F37.0 °F59 %30.18 in10.0 miESE (120°)6.9 mphOvercast
2:52 PM50.0 °F37.0 °F61 %30.17 in10.0 miESE (110°)12.7 mphOvercast
3:52 PM46.9 °F37.0 °F68 %30.16 in10.0 miEast (100°)11.5 mph0.00 inRainLight Rain
4:52 PM45.0 °F37.9 °F76 %30.14 in10.0 miEast (100°)6.9 mph0.00 inRainLight Rain
5:15 PM44.1 °F37.9 °F79 %30.11 in6.0 miEast (90°)10.4 mph0.01 inRainLight Rain
5:52 PM42.1 °F37.9 °F85 %30.13 in6.0 miEast (80°)6.9 mph0.02 inRainLight Rain
6:34 PM39.9 °F37.0 °F89 %30.10 in6.0 miNE (50°)6.9 mph0.04 inRainLight Rain
6:43 PM39.9 °F36.0 °F86 %30.10 in6.0 miNNE (30°)3.5 mph0.04 inRainLight Rain
6:52 PM39.9 °F36.0 °F86 %30.12 in6.0 miNNE (30°)5.8 mph0.05 inRainLight Rain
7:52 PM39.0 °F36.0 °F89 %30.11 in8.0 miNE (50°)6.9 mph0.08 inRainLight Rain
8:52 PM39.0 °F36.0 °F89 %30.08 in6.0 miVariable4.6 mph0.04 inRainRain
9:52 PM37.9 °F36.0 °F93 %30.04 in6.0 miNorth (10°)4.6 mph0.13 inRainRain
10:52 PM37.9 °F36.0 °F93 %30.00 in5.0 miNE (50°)8.1 mph0.16 inRainRain
11:52 PM37.9 °F35.1 °F89 %29.96 in6.0 miNE (40°)5.8 mph0.14 inRainLight Rain
Hourly data recorded from KORE, located miles away from Turners Falls, Massachusetts







STORIES FROM OUR PARTNERS